Time,TemperatureF,DewpointF,PressureIn,WindDirection,WindDirectionDegrees,WindSpeedMPH,WindSpeedGustMPH,Humidity,HourlyPrecipIn,Conditions,Clouds,dailyrainin,SoftwareType,DateUTC
2013-05-19 00:03:00,74.0,72.0,30.09,South,171,3.0,11.0,93,0.12,,,0.13,,2013-05-19 04:03:00,
2013-05-19 00:13:00,74.0,72.0,30.09,South,171,3.0,11.0,93,0.12,,,0.13,,2013-05-19 04:13:00,
2013-05-19 00:23:00,74.0,72.0,30.08,SE,145,3.0,16.0,94,0.43,,,0.44,,2013-05-19 04:23:00,
2013-05-19 00:33:00,72.0,70.0,30.08,SSE,161,7.0,22.0,94,0.94,,,0.95,,2013-05-19 04:33:00,
2013-05-19 00:42:00,72.0,70.0,30.08,SSE,161,7.0,22.0,94,0.94,,,0.95,,2013-05-19 04:42:00,
2013-05-19 00:52:00,71.0,70.0,30.07,South,180,0.0,5.0,96,0.98,,,0.99,,2013-05-19 04:52:00,
2013-05-19 01:02:00,72.0,71.0,30.07,ESE,115,0.0,3.0,96,0.83,,,0.99,,2013-05-19 05:02:00,
2013-05-19 01:12:00,72.0,71.0,30.07,ESE,115,0.0,3.0,96,0.83,,,0.99,,2013-05-19 05:12:00,
2013-05-19 01:22:00,73.0,72.0,30.08,ESE,115,0.0,2.0,96,0.51,,,0.99,,2013-05-19 05:22:00,
2013-05-19 01:32:00,72.0,71.0,30.07,ESE,115,0.0,1.0,96,0.03,,,0.99,,2013-05-19 05:32:00,
2013-05-19 01:42:00,72.0,71.0,30.06,SW,219,0.0,1.0,97,0.00,,,0.99,,2013-05-19 05:42:00,
2013-05-19 01:51:00,72.0,71.0,30.06,SW,219,0.0,1.0,97,0.00,,,0.99,,2013-05-19 05:51:00,
2013-05-19 02:02:00,72.0,71.0,30.07,East,91,0.0,2.0,97,0.00,,,0.99,,2013-05-19 06:02:00,
2013-05-19 02:12:00,72.0,71.0,30.07,East,91,0.0,2.0,97,0.00,,,0.99,,2013-05-19 06:12:00,
2013-05-19 02:21:00,72.0,71.0,30.06,SE,133,1.0,5.0,97,0.00,,,0.99,,2013-05-19 06:21:00,
2013-05-19 02:32:00,72.0,71.0,30.05,SE,132,1.0,3.0,97,0.00,,,0.99,,2013-05-19 06:32:00,
2013-05-19 02:42:00,72.0,71.0,30.05,SE,132,1.0,3.0,97,0.00,,,0.99,,2013-05-19 06:42:00,
2013-05-19 02:52:00,72.0,71.0,30.05,ESE,120,0.0,3.0,97,0.00,,,0.99,,2013-05-19 06:52:00,
2013-05-19 03:01:00,71.0,70.0,30.05,SE,127,1.0,5.0,97,0.00,,,0.99,,2013-05-19 07:01:00,
2013-05-19 03:11:00,71.0,70.0,30.05,SE,127,1.0,5.0,97,0.00,,,0.99,,2013-05-19 07:11:00,
2013-05-19 03:22:00,71.0,70.0,30.04,SE,141,1.0,4.0,97,0.00,,,0.99,,2013-05-19 07:22:00,
2013-05-19 03:32:00,71.0,70.0,30.03,SE,138,0.0,5.0,98,0.00,,,0.99,,2013-05-19 07:32:00,
2013-05-19 03:42:00,71.0,70.0,30.03,SE,138,0.0,5.0,98,0.00,,,0.99,,2013-05-19 07:42:00,
2013-05-19 03:52:00,71.0,70.0,30.04,SE,138,1.0,4.0,97,0.00,,,0.99,,2013-05-19 07:52:00,
2013-05-19 04:02:00,71.0,70.0,30.03,SSE,148,1.0,5.0,97,0.00,,,0.99,,2013-05-19 08:02:00,
2013-05-19 04:12:00,71.0,70.0,30.03,SSE,148,1.0,5.0,97,0.00,,,0.99,,2013-05-19 08:12:00,
2013-05-19 04:22:00,71.0,70.0,30.03,SE,144,0.0,4.0,98,0.00,,,0.99,,2013-05-19 08:22:00,
2013-05-19 04:32:00,70.0,69.0,30.03,SSE,149,1.0,3.0,97,0.00,,,0.99,,2013-05-19 08:32:00,
2013-05-19 04:42:00,70.0,69.0,30.03,SSE,149,1.0,3.0,97,0.00,,,0.99,,2013-05-19 08:42:00,
2013-05-19 04:52:00,70.0,69.0,30.03,SE,138,1.0,4.0,98,0.00,,,0.99,,2013-05-19 08:52:00,
2013-05-19 05:02:00,70.0,69.0,30.03,SSE,155,0.0,4.0,98,0.00,,,0.99,,2013-05-19 09:02:00,
2013-05-19 05:12:00,70.0,69.0,30.03,SSE,155,0.0,4.0,98,0.00,,,0.99,,2013-05-19 09:12:00,
2013-05-19 05:21:00,69.0,68.0,30.03,SE,141,0.0,4.0,98,0.00,,,0.99,,2013-05-19 09:21:00,
2013-05-19 05:32:00,69.0,68.0,30.03,SSE,161,0.0,2.0,98,0.00,,,0.99,,2013-05-19 09:32:00,
2013-05-19 05:43:00,69.0,68.0,30.03,SSE,161,0.0,2.0,98,0.00,,,0.99,,2013-05-19 09:43:00,
2013-05-19 05:53:00,69.0,68.0,30.03,SE,127,0.0,3.0,98,0.00,,,0.99,,2013-05-19 09:53:00,
2013-05-19 06:03:00,69.0,68.0,30.03,ESE,123,1.0,3.0,98,0.00,,,0.99,,2013-05-19 10:03:00,
2013-05-19 06:12:00,69.0,68.0,30.03,ESE,123,1.0,3.0,98,0.00,,,0.99,,2013-05-19 10:12:00,
2013-05-19 06:23:00,69.0,68.0,30.03,ESE,123,1.0,3.0,98,0.00,,,0.99,,2013-05-19 10:23:00,
2013-05-19 06:33:00,68.0,67.0,30.04,SE,141,0.0,2.0,98,0.00,,,0.99,,2013-05-19 10:33:00,
2013-05-19 06:42:00,68.0,67.0,30.04,SE,141,0.0,2.0,98,0.00,,,0.99,,2013-05-19 10:42:00,
2013-05-19 06:53:00,68.0,67.0,30.05,SSW,211,0.0,3.0,98,0.00,,,0.99,,2013-05-19 10:53:00,
2013-05-19 07:02:00,68.0,67.0,30.06,SSW,208,0.0,2.0,98,0.00,,,0.99,,2013-05-19 11:02:00,
2013-05-19 07:12:00,68.0,67.0,30.06,SSW,208,0.0,2.0,98,0.00,,,0.99,,2013-05-19 11:12:00,
2013-05-19 07:21:00,68.0,67.0,30.06,SSW,198,0.0,2.0,98,0.00,,,0.99,,2013-05-19 11:21:00,
2013-05-19 07:32:00,68.0,67.0,30.07,SSW,198,0.0,1.0,98,0.00,,,0.99,,2013-05-19 11:32:00,
2013-05-19 07:42:00,68.0,67.0,30.07,SSW,198,0.0,1.0,98,0.00,,,0.99,,2013-05-19 11:42:00,
2013-05-19 07:52:00,68.0,67.0,30.08,SSW,200,0.0,2.0,98,0.00,,,0.99,,2013-05-19 11:52:00,
2013-05-19 08:01:00,69.0,68.0,30.08,SSW,199,0.0,2.0,98,0.00,,,0.99,,2013-05-19 12:01:00,
2013-05-19 08:12:00,69.0,68.0,30.08,SSW,199,0.0,2.0,98,0.00,,,0.99,,2013-05-19 12:12:00,
2013-05-19 08:22:00,70.0,69.0,30.09,SW,220,1.0,3.0,98,0.00,,,0.99,,2013-05-19 12:22:00,
2013-05-19 08:32:00,70.0,69.0,30.08,SW,230,1.0,3.0,98,0.00,,,0.99,,2013-05-19 12:32:00,
2013-05-19 08:42:00,70.0,69.0,30.08,SW,230,1.0,3.0,98,0.00,,,0.99,,2013-05-19 12:42:00,
2013-05-19 08:52:00,71.0,70.0,30.09,SW,218,0.0,4.0,98,0.00,,,0.99,,2013-05-19 12:52:00,
2013-05-19 09:01:00,73.0,72.0,30.09,South,180,0.0,5.0,98,0.00,,,0.99,,2013-05-19 13:01:00,
2013-05-19 09:11:00,73.0,72.0,30.09,South,180,0.0,5.0,98,0.00,,,0.99,,2013-05-19 13:11:00,
2013-05-19 09:21:00,73.0,72.0,30.10,WSW,254,0.0,2.0,97,0.00,,,0.99,,2013-05-19 13:21:00,
2013-05-19 09:32:00,74.0,72.0,30.10,SE,146,0.0,3.0,95,0.00,,,0.99,,2013-05-19 13:32:00,
2013-05-19 09:42:00,74.0,72.0,30.10,SE,146,0.0,3.0,95,0.00,,,0.99,,2013-05-19 13:42:00,
2013-05-19 09:52:00,75.0,73.0,30.10,West,267,1.0,3.0,95,0.00,,,0.99,,2013-05-19 13:52:00,
2013-05-19 10:02:00,76.0,74.0,30.11,SW,225,1.0,4.0,92,0.00,,,0.99,,2013-05-19 14:02:00,
2013-05-19 10:11:00,76.0,74.0,30.11,SW,225,1.0,4.0,92,0.00,,,0.99,,2013-05-19 14:11:00,
2013-05-19 10:21:00,77.0,74.0,30.10,SW,224,2.0,5.0,89,0.00,,,0.99,,2013-05-19 14:21:00,
2013-05-19 10:32:00,78.0,72.0,30.10,SW,232,3.0,5.0,81,0.00,,,0.99,,2013-05-19 14:32:00,
2013-05-19 10:42:00,78.0,72.0,30.10,SW,232,3.0,5.0,81,0.00,,,0.99,,2013-05-19 14:42:00,
2013-05-19 10:52:00,79.0,73.0,30.11,South,189,2.0,6.0,81,0.00,,,0.99,,2013-05-19 14:52:00,
2013-05-19 11:02:00,80.0,72.0,30.11,WSW,248,1.0,6.0,77,0.01,,,1.00,,2013-05-19 15:02:00,
2013-05-19 11:12:00,80.0,72.0,30.11,WSW,248,1.0,6.0,77,0.01,,,1.00,,2013-05-19 15:12:00,
2013-05-19 11:22:00,81.0,73.0,30.10,SW,217,1.0,6.0,76,0.01,,,1.00,,2013-05-19 15:22:00,
2013-05-19 11:33:00,83.0,75.0,30.10,West,269,0.0,4.0,76,0.01,,,1.00,,2013-05-19 15:33:00,
2013-05-19 11:43:00,83.0,75.0,30.10,West,269,0.0,4.0,76,0.01,,,1.00,,2013-05-19 15:43:00,
2013-05-19 11:53:00,83.0,72.0,30.10,South,178,1.0,7.0,69,0.01,,,1.00,,2013-05-19 15:53:00,
2013-05-19 12:03:00,84.0,73.0,30.09,SSW,204,0.0,5.0,69,0.00,,,1.00,,2013-05-19 16:03:00,
2013-05-19 12:12:00,84.0,73.0,30.09,SSW,204,0.0,5.0,69,0.00,,,1.00,,2013-05-19 16:12:00,
2013-05-19 12:23:00,85.0,71.0,30.09,SSE,163,1.0,5.0,63,0.00,,,1.00,,2013-05-19 16:23:00,
2013-05-19 12:32:00,85.0,70.0,30.09,WSW,246,1.0,7.0,60,0.00,,,1.00,,2013-05-19 16:32:00,
2013-05-19 12:42:00,85.0,70.0,30.09,WSW,246,1.0,7.0,60,0.00,,,1.00,,2013-05-19 16:42:00,
2013-05-19 12:52:00,85.0,70.0,30.09,SSE,151,1.0,7.0,61,0.00,,,1.00,,2013-05-19 16:52:00,
2013-05-19 13:02:00,85.0,70.0,30.09,SSE,151,1.0,7.0,61,0.00,,,1.00,,2013-05-19 17:02:00,
2013-05-19 13:12:00,85.0,70.0,30.09,SSE,151,1.0,7.0,61,0.00,,,1.00,,2013-05-19 17:12:00,
2013-05-19 13:22:00,86.0,73.0,30.07,South,178,3.0,7.0,65,0.00,,,1.00,,2013-05-19 17:22:00,
2013-05-19 13:32:00,88.0,69.0,30.06,South,186,2.0,6.0,53,0.00,,,1.00,,2013-05-19 17:32:00,
2013-05-19 13:42:00,88.0,69.0,30.06,South,186,2.0,6.0,53,0.00,,,1.00,,2013-05-19 17:42:00,
2013-05-19 13:52:00,88.0,69.0,30.06,WNW,293,3.0,6.0,53,0.00,,,1.00,,2013-05-19 17:52:00,
2013-05-19 14:02:00,89.0,72.0,30.05,ESE,111,1.0,5.0,57,0.00,,,1.00,,2013-05-19 18:02:00,
2013-05-19 14:12:00,89.0,72.0,30.05,ESE,111,1.0,5.0,57,0.00,,,1.00,,2013-05-19 18:12:00,
2013-05-19 14:22:00,88.0,69.0,30.04,South,173,0.0,5.0,53,0.00,,,1.00,,2013-05-19 18:22:00,
2013-05-19 14:32:00,89.0,68.0,30.03,West,267,4.0,12.0,51,0.00,,,1.00,,2013-05-19 18:32:00,
2013-05-19 14:43:00,89.0,68.0,30.03,West,267,4.0,12.0,51,0.00,,,1.00,,2013-05-19 18:43:00,
2013-05-19 14:52:00,89.0,68.0,30.03,SE,144,2.0,7.0,50,0.00,,,1.00,,2013-05-19 18:52:00,
2013-05-19 15:01:00,89.0,68.0,30.03,SW,232,3.0,8.0,51,0.00,,,1.00,,2013-05-19 19:01:00,
2013-05-19 15:11:00,89.0,68.0,30.03,SW,232,3.0,8.0,51,0.00,,,1.00,,2013-05-19 19:11:00,
2013-05-19 15:22:00,89.0,67.0,30.02,NW,311,2.0,7.0,48,0.00,,,1.00,,2013-05-19 19:22:00,
2013-05-19 15:32:00,91.0,69.0,30.02,West,279,5.0,9.0,49,0.00,,,1.00,,2013-05-19 19:32:00,
2013-05-19 15:42:00,91.0,69.0,30.02,West,279,5.0,9.0,49,0.00,,,1.00,,2013-05-19 19:42:00,
2013-05-19 15:52:00,90.0,68.0,30.01,North,9,2.0,4.0,48,0.00,,,1.00,,2013-05-19 19:52:00,
2013-05-19 16:02:00,89.0,68.0,30.01,WNW,290,2.0,8.0,50,0.00,,,1.00,,2013-05-19 20:02:00,
2013-05-19 16:11:00,89.0,68.0,30.01,WNW,290,2.0,8.0,50,0.00,,,1.00,,2013-05-19 20:11:00,
2013-05-19 16:22:00,90.0,68.0,30.00,WNW,282,2.0,9.0,48,0.00,,,1.00,,2013-05-19 20:22:00,
2013-05-19 16:32:00,90.0,69.0,30.00,West,267,2.0,8.0,50,0.00,,,1.00,,2013-05-19 20:32:00,
2013-05-19 16:42:00,90.0,69.0,30.00,West,267,2.0,8.0,50,0.00,,,1.00,,2013-05-19 20:42:00,
2013-05-19 16:52:00,90.0,71.0,29.99,NE,49,2.0,6.0,53,0.00,,,1.00,,2013-05-19 20:52:00,
2013-05-19 17:02:00,90.0,68.0,29.98,NW,304,1.0,8.0,49,0.00,,,1.00,,2013-05-19 21:02:00,
2013-05-19 17:11:00,90.0,68.0,29.98,NW,304,1.0,8.0,49,0.00,,,1.00,,2013-05-19 21:11:00,
2013-05-19 17:22:00,90.0,71.0,29.98,SW,232,1.0,5.0,53,0.00,,,1.00,,2013-05-19 21:22:00,
2013-05-19 17:32:00,89.0,70.0,29.98,NW,313,2.0,5.0,54,0.00,,,1.00,,2013-05-19 21:32:00,
2013-05-19 17:43:00,89.0,70.0,29.98,NW,313,2.0,5.0,54,0.00,,,1.00,,2013-05-19 21:43:00,
2013-05-19 17:53:00,89.0,68.0,29.98,West,264,0.0,1.0,50,0.00,,,1.00,,2013-05-19 21:53:00,
2013-05-19 18:03:00,87.0,73.0,29.99,SE,132,6.0,11.0,63,0.00,,,1.00,,2013-05-19 22:03:00,
2013-05-19 18:12:00,87.0,73.0,29.99,SE,132,6.0,11.0,63,0.00,,,1.00,,2013-05-19 22:12:00,
2013-05-19 18:23:00,83.0,72.0,30.00,East,86,6.0,13.0,69,0.00,,,1.00,,2013-05-19 22:23:00,
2013-05-19 18:33:00,82.0,72.0,30.00,SSE,150,4.0,14.0,73,0.00,,,1.00,,2013-05-19 22:33:00,
2013-05-19 18:42:00,82.0,72.0,30.00,SSE,150,4.0,14.0,73,0.00,,,1.00,,2013-05-19 22:42:00,
2013-05-19 18:53:00,82.0,73.0,30.00,ESE,122,4.0,13.0,74,0.00,,,1.00,,2013-05-19 22:53:00,
2013-05-19 19:03:00,82.0,73.0,30.00,ESE,122,6.0,11.0,74,0.00,,,1.00,,2013-05-19 23:03:00,
2013-05-19 19:12:00,82.0,73.0,30.00,ESE,122,6.0,11.0,74,0.00,,,1.00,,2013-05-19 23:12:00,
2013-05-19 19:22:00,81.0,73.0,30.02,ESE,104,3.0,10.0,76,0.00,,,1.00,,2013-05-19 23:22:00,
2013-05-19 19:32:00,80.0,72.0,30.01,ESE,114,2.0,6.0,76,0.00,,,1.00,,2013-05-19 23:32:00,
2013-05-19 19:42:00,80.0,72.0,30.01,ESE,114,2.0,6.0,76,0.00,,,1.00,,2013-05-19 23:42:00,
2013-05-19 19:52:00,80.0,72.0,30.02,ENE,74,1.0,5.0,77,0.00,,,1.00,,2013-05-19 23:52:00,
2013-05-19 20:02:00,80.0,72.0,30.02,East,84,3.0,7.0,77,0.00,,,1.00,,2013-05-20 00:02:00,
2013-05-19 20:12:00,80.0,72.0,30.02,East,84,3.0,7.0,77,0.00,,,1.00,,2013-05-20 00:12:00,
2013-05-19 20:22:00,80.0,72.0,30.02,ENE,69,5.0,9.0,77,0.00,,,1.00,,2013-05-20 00:22:00,
2013-05-19 20:32:00,79.0,71.0,30.03,ESE,103,2.0,7.0,77,0.00,,,1.00,,2013-05-20 00:32:00,
2013-05-19 20:42:00,79.0,71.0,30.03,ESE,103,2.0,7.0,77,0.00,,,1.00,,2013-05-20 00:42:00,
2013-05-19 20:52:00,78.0,70.0,30.03,East,98,5.0,7.0,77,0.00,,,1.00,,2013-05-20 00:52:00,
2013-05-19 21:01:00,78.0,71.0,30.04,East,101,5.0,9.0,80,0.00,,,1.00,,2013-05-20 01:01:00,
2013-05-19 21:11:00,78.0,71.0,30.04,East,101,5.0,9.0,80,0.00,,,1.00,,2013-05-20 01:11:00,
2013-05-19 21:22:00,77.0,71.0,30.04,SE,126,0.0,6.0,83,0.00,,,1.00,,2013-05-20 01:22:00,
2013-05-19 21:32:00,75.0,71.0,30.05,SE,132,2.0,6.0,88,0.05,,,1.05,,2013-05-20 01:32:00,
2013-05-19 21:42:00,75.0,71.0,30.05,SE,132,2.0,6.0,88,0.05,,,1.05,,2013-05-20 01:42:00,
2013-05-19 21:52:00,74.0,72.0,30.06,ESE,120,3.0,7.0,92,0.07,,,1.07,,2013-05-20 01:52:00,
2013-05-19 22:02:00,73.0,71.0,30.06,SSW,198,0.0,3.0,94,0.07,,,1.07,,2013-05-20 02:02:00,
2013-05-19 22:12:00,73.0,71.0,30.06,SSW,198,0.0,3.0,94,0.07,,,1.07,,2013-05-20 02:12:00,
2013-05-19 22:21:00,73.0,71.0,30.06,SE,140,0.0,3.0,94,0.07,,,1.07,,2013-05-20 02:21:00,
2013-05-19 22:32:00,72.0,70.0,30.07,SSE,162,0.0,2.0,95,0.02,,,1.06,,2013-05-20 02:32:00,
2013-05-19 22:42:00,72.0,70.0,30.07,SSE,162,0.0,2.0,95,0.02,,,1.06,,2013-05-20 02:42:00,
2013-05-19 22:51:00,73.0,72.0,30.09,SSW,198,0.0,2.0,96,0.00,,,1.06,,2013-05-20 02:51:00,
2013-05-19 23:02:00,73.0,72.0,30.09,SE,126,1.0,3.0,96,0.00,,,1.06,,2013-05-20 03:02:00,
2013-05-19 23:11:00,73.0,72.0,30.09,SE,126,1.0,3.0,96,0.00,,,1.06,,2013-05-20 03:11:00,
2013-05-19 23:21:00,73.0,72.0,30.09,ESE,121,3.0,7.0,96,0.00,,,1.06,,2013-05-20 03:21:00,
2013-05-19 23:33:00,73.0,72.0,30.09,SE,128,0.0,5.0,96,0.00,,,1.06,,2013-05-20 03:33:00,
2013-05-19 23:43:00,73.0,72.0,30.09,SE,128,0.0,5.0,96,0.00,,,1.06,,2013-05-20 03:43:00,
2013-05-19 23:52:00,73.0,71.0,30.10,ESE,117,1.0,5.0,95,0.00,,,1.06,,2013-05-20 03:52:00,